contact:dominique.lefevre@mio.osupytheas.fr, maurice.libes@osupytheas.fr, didier.mallarino@osupytheas.fr
Project:EMSO http://www.emso-fr.org/EMSO-France
Depth: 2436.0 m
Title:EMSO Ligure Ouest : Data MII capteur MICROCAT
DateTime_Computer,Latitude,Longitude,Temperature,Conductivity,Pressure,DateTime_Instrument
DateTime_Computer,Latitude,Longitude,degC,S m-1,dbar,DateTime_Instrument
2021-07-18T00:01:21Z,42.805,6.029,13.2993,4.60005,2470.31,2021-7-18T02:02:37Z
2021-07-18T00:04:24Z,42.805,6.029,13.2990,4.60016,2470.38,2021-7-18T02:05:40Z
2021-07-18T00:07:27Z,42.805,6.029,13.2991,4.60018,2470.404,2021-7-18T02:08:43Z
2021-07-18T00:10:30Z,42.805,6.029,13.2990,4.60003,2470.357,2021-7-18T02:11:46Z
2021-07-18T00:13:33Z,42.805,6.029,13.2991,4.60002,2470.357,2021-7-18T02:14:49Z
2021-07-18T00:16:36Z,42.805,6.029,13.2994,4.60002,2470.366,2021-7-18T02:17:52Z
2021-07-18T00:19:39Z,42.805,6.029,13.2993,4.60001,2470.38,2021-7-18T02:20:56Z
2021-07-18T00:22:43Z,42.805,6.029,13.2989,4.60002,2470.39,2021-7-18T02:23:59Z
2021-07-18T00:25:46Z,42.805,6.029,13.2988,4.59999,2470.404,2021-7-18T02:27:02Z
2021-07-18T00:28:49Z,42.805,6.029,13.2990,4.60011,2470.343,2021-7-18T02:30:05Z
2021-07-18T00:31:52Z,42.805,6.029,13.2989,4.59999,2470.343,2021-7-18T02:33:08Z
2021-07-18T00:34:55Z,42.805,6.029,13.2991,4.60001,2470.357,2021-7-18T02:36:11Z
2021-07-18T00:37:58Z,42.805,6.029,13.2990,4.60003,2470.366,2021-7-18T02:39:14Z
2021-07-18T00:41:01Z,42.805,6.029,13.2994,4.60001,2470.38,2021-7-18T02:42:17Z
2021-07-18T00:44:04Z,42.805,6.029,13.2986,4.60001,2470.38,2021-7-18T02:45:21Z
2021-07-18T00:47:08Z,42.805,6.029,13.2983,4.59997,2470.366,2021-7-18T02:48:24Z
2021-07-18T00:50:11Z,42.805,6.029,13.2989,4.59998,2470.404,2021-7-18T02:51:27Z
2021-07-18T00:53:14Z,42.805,6.029,13.2988,4.59999,2470.366,2021-7-18T02:54:30Z
2021-07-18T00:56:17Z,42.805,6.029,13.2986,4.60000,2470.39,2021-7-18T02:57:33Z
2021-07-18T00:59:20Z,42.805,6.029,13.2988,4.60006,2470.334,2021-7-18T03:00:36Z
2021-07-18T01:02:23Z,42.805,6.029,13.2982,4.59999,2470.366,2021-7-18T03:03:39Z
2021-07-18T01:05:26Z,42.805,6.029,13.2986,4.60001,2470.353,2021-7-18T03:06:42Z
2021-07-18T01:08:29Z,42.805,6.029,13.2988,4.59999,2470.357,2021-7-18T03:09:46Z
2021-07-18T01:11:33Z,42.805,6.029,13.2985,4.60003,2470.39,2021-7-18T03:12:49Z
2021-07-18T01:14:36Z,42.805,6.029,13.2989,4.60001,2470.357,2021-7-18T03:15:52Z
2021-07-18T01:17:39Z,42.805,6.029,13.2988,4.60003,2470.343,2021-7-18T03:18:55Z
2021-07-18T01:20:42Z,42.805,6.029,13.2989,4.60001,2470.343,2021-7-18T03:21:58Z
2021-07-18T01:23:45Z,42.805,6.029,13.2989,4.60009,2470.39,2021-7-18T03:25:01Z
2021-07-18T01:26:48Z,42.805,6.029,13.2988,4.60000,2470.357,2021-7-18T03:28:04Z
2021-07-18T01:29:51Z,42.805,6.029,13.2989,4.60003,2470.357,2021-7-18T03:31:07Z
2021-07-18T01:32:54Z,42.805,6.029,13.2986,4.59997,2470.38,2021-7-18T03:34:11Z
2021-07-18T01:35:58Z,42.805,6.029,13.2985,4.59996,2470.366,2021-7-18T03:37:14Z
2021-07-18T01:39:01Z,42.805,6.029,13.2984,4.59997,2470.366,2021-7-18T03:40:17Z
2021-07-18T01:42:04Z,42.805,6.029,13.2989,4.60000,2470.366,2021-7-18T03:43:20Z
2021-07-18T01:45:07Z,42.805,6.029,13.2983,4.60001,2470.343,2021-7-18T03:46:23Z
2021-07-18T01:48:10Z,42.805,6.029,13.2988,4.60005,2470.39,2021-7-18T03:49:26Z
2021-07-18T01:51:13Z,42.805,6.029,13.2986,4.60001,2470.357,2021-7-18T03:52:29Z
2021-07-18T01:54:16Z,42.805,6.029,13.2988,4.60009,2470.32,2021-7-18T03:55:32Z
2021-07-18T01:57:19Z,42.805,6.029,13.2987,4.60008,2470.38,2021-7-18T03:58:36Z
2021-07-18T02:00:23Z,42.805,6.029,13.2986,4.60010,2470.334,2021-7-18T04:01:39Z
2021-07-18T02:03:26Z,42.805,6.029,13.2988,4.60010,2470.357,2021-7-18T04:04:42Z
2021-07-18T02:06:29Z,42.805,6.029,13.2986,4.60003,2470.343,2021-7-18T04:07:45Z
2021-07-18T02:09:32Z,42.805,6.029,13.2984,4.60009,2470.357,2021-7-18T04:10:48Z
2021-07-18T02:12:35Z,42.805,6.029,13.2987,4.60008,2470.343,2021-7-18T04:13:51Z
2021-07-18T02:15:38Z,42.805,6.029,13.2988,4.60012,2470.32,2021-7-18T04:16:54Z
2021-07-18T02:18:41Z,42.805,6.029,13.2991,4.60010,2470.357,2021-7-18T04:19:57Z
2021-07-18T02:21:44Z,42.805,6.029,13.2991,4.60014,2470.357,2021-7-18T04:23:01Z
2021-07-18T02:24:48Z,42.805,6.029,13.2986,4.60015,2470.343,2021-7-18T04:26:04Z
2021-07-18T02:27:51Z,42.805,6.029,13.2986,4.60009,2470.32,2021-7-18T04:29:07Z
2021-07-18T02:30:54Z,42.805,6.029,13.2989,4.60012,2470.343,2021-7-18T04:32:10Z
2021-07-18T02:33:57Z,42.805,6.029,13.2984,4.60007,2470.32,2021-7-18T04:35:13Z
2021-07-18T02:37:00Z,42.805,6.029,13.2985,4.60008,2470.343,2021-7-18T04:38:16Z
2021-07-18T02:40:03Z,42.805,6.029,13.2990,4.60024,2470.366,2021-7-18T04:41:19Z
2021-07-18T02:43:06Z,42.805,6.029,13.3020,4.60024,2470.334,2021-7-18T04:44:22Z
2021-07-18T02:46:09Z,42.805,6.029,13.3019,4.60014,2470.38,2021-7-18T04:47:26Z
2021-07-18T02:49:13Z,42.805,6.029,13.3021,4.60045,2470.334,2021-7-18T04:50:29Z
2021-07-18T02:52:16Z,42.805,6.029,13.3023,4.60024,2470.343,2021-7-18T04:53:32Z
2021-07-18T02:55:19Z,42.805,6.029,13.3030,4.60034,2470.32,2021-7-18T04:56:35Z
2021-07-18T02:58:22Z,42.805,6.029,13.3034,4.60087,2470.334,2021-7-18T04:59:38Z
2021-07-18T03:01:25Z,42.805,6.029,13.3027,4.60066,2470.334,2021-7-18T05:02:41Z
2021-07-18T03:04:28Z,42.805,6.029,13.3030,4.60083,2470.357,2021-7-18T05:05:44Z
2021-07-18T03:07:31Z,42.805,6.029,13.3036,4.60060,2470.31,2021-7-18T05:08:47Z
2021-07-18T03:10:34Z,42.805,6.029,13.3034,4.60076,2470.334,2021-7-18T05:11:51Z
2021-07-18T03:13:38Z,42.805,6.029,13.3014,4.60059,2470.32,2021-7-18T05:14:54Z
2021-07-18T03:16:41Z,42.805,6.029,13.3031,4.60072,2470.32,2021-7-18T05:17:57Z
2021-07-18T03:19:44Z,42.805,6.029,13.3029,4.60066,2470.343,2021-7-18T05:21:00Z
2021-07-18T03:22:47Z,42.805,6.029,13.3012,4.60056,2470.297,2021-7-18T05:24:03Z
2021-07-18T03:25:50Z,42.805,6.029,13.3012,4.60091,2470.32,2021-7-18T05:27:06Z
2021-07-18T03:28:53Z,42.805,6.029,13.3036,4.60105,2470.334,2021-7-18T05:30:09Z
2021-07-18T03:31:56Z,42.805,6.029,13.3010,4.60101,2470.31,2021-7-18T05:33:12Z
2021-07-18T03:34:59Z,42.805,6.029,13.3018,4.60119,2470.31,2021-7-18T05:36:16Z
2021-07-18T03:38:02Z,42.805,6.029,13.3009,4.60104,2470.283,2021-7-18T05:39:19Z
2021-07-18T03:41:06Z,42.805,6.029,13.3031,4.60051,2470.273,2021-7-18T05:42:22Z
2021-07-18T03:44:09Z,42.805,6.029,13.3016,4.60081,2470.31,2021-7-18T05:45:25Z
2021-07-18T03:47:12Z,42.805,6.029,13.3031,4.60122,2470.334,2021-7-18T05:48:28Z
2021-07-18T03:50:15Z,42.805,6.029,13.3026,4.60094,2470.32,2021-7-18T05:51:31Z
2021-07-18T03:53:18Z,42.805,6.029,13.3006,4.60099,2470.32,2021-7-18T05:54:34Z
2021-07-18T03:56:21Z,42.805,6.029,13.3006,4.60081,2470.297,2021-7-18T05:57:37Z
2021-07-18T03:59:24Z,42.805,6.029,13.3008,4.60077,2470.297,2021-7-18T06:00:41Z
2021-07-18T04:02:27Z,42.805,6.029,13.3019,4.60069,2470.264,2021-7-18T06:03:44Z
2021-07-18T04:05:31Z,42.805,6.029,13.3028,4.60104,2470.287,2021-7-18T06:06:47Z
2021-07-18T04:08:34Z,42.805,6.029,13.3000,4.60077,2470.273,2021-7-18T06:09:50Z
2021-07-18T04:11:37Z,42.805,6.029,13.3008,4.60083,2470.31,2021-7-18T06:12:53Z
2021-07-18T04:14:40Z,42.805,6.029,13.3006,4.60072,2470.273,2021-7-18T06:15:56Z
2021-07-18T04:17:43Z,42.805,6.029,13.3012,4.60070,2470.334,2021-7-18T06:18:59Z
2021-07-18T04:20:46Z,42.805,6.029,13.3010,4.60087,2470.31,2021-7-18T06:22:02Z
2021-07-18T04:23:49Z,42.805,6.029,13.3003,4.60055,2470.297,2021-7-18T06:25:06Z
2021-07-18T04:26:52Z,42.805,6.029,13.3000,4.60086,2470.334,2021-7-18T06:28:09Z
2021-07-18T04:29:56Z,42.805,6.029,13.3008,4.60062,2470.31,2021-7-18T06:31:12Z
2021-07-18T04:32:59Z,42.805,6.029,13.3006,4.60067,2470.273,2021-7-18T06:34:15Z
2021-07-18T04:36:02Z,42.805,6.029,13.3017,4.60045,2470.31,2021-7-18T06:37:18Z
2021-07-18T04:39:05Z,42.805,6.029,13.3015,4.60089,2470.273,2021-7-18T06:40:21Z
2021-07-18T04:42:08Z,42.805,6.029,13.3008,4.60092,2470.31,2021-7-18T06:43:24Z
2021-07-18T04:45:11Z,42.805,6.029,13.3022,4.60085,2470.297,2021-7-18T06:46:27Z
2021-07-18T04:48:14Z,42.805,6.029,13.3005,4.60104,2470.297,2021-7-18T06:49:31Z
2021-07-18T04:51:17Z,42.805,6.029,13.3009,4.60079,2470.31,2021-7-18T06:52:34Z
2021-07-18T04:54:21Z,42.805,6.029,13.3019,4.60087,2470.273,2021-7-18T06:55:37Z
2021-07-18T04:57:24Z,42.805,6.029,13.3011,4.60112,2470.273,2021-7-18T06:58:40Z
2021-07-18T05:00:27Z,42.805,6.029,13.3014,4.60102,2470.31,2021-7-18T07:01:43Z
2021-07-18T05:03:30Z,42.805,6.029,13.3006,4.60148,2470.297,2021-7-18T07:04:46Z
2021-07-18T05:06:33Z,42.805,6.029,13.3019,4.60079,2470.297,2021-7-18T07:07:49Z
2021-07-18T05:09:36Z,42.805,6.029,13.3029,4.60084,2470.32,2021-7-18T07:10:52Z
2021-07-18T05:12:39Z,42.805,6.029,13.3021,4.60031,2470.297,2021-7-18T07:13:56Z
2021-07-18T05:15:42Z,42.805,6.029,13.3030,4.60089,2470.287,2021-7-18T07:16:59Z
2021-07-18T05:18:46Z,42.805,6.029,13.3043,4.60046,2470.273,2021-7-18T07:20:02Z
2021-07-18T05:21:49Z,42.805,6.029,13.3055,4.60047,2470.25,2021-7-18T07:23:05Z
2021-07-18T05:24:52Z,42.805,6.029,13.3023,4.60058,2470.273,2021-7-18T07:26:08Z
2021-07-18T05:27:55Z,42.805,6.029,13.3042,4.60059,2470.273,2021-7-18T07:29:11Z
2021-07-18T05:30:58Z,42.805,6.029,13.3056,4.60066,2470.25,2021-7-18T07:32:14Z
2021-07-18T05:34:01Z,42.805,6.029,13.3053,4.60074,2470.297,2021-7-18T07:35:17Z
2021-07-18T05:37:04Z,42.805,6.029,13.3073,4.60062,2470.264,2021-7-18T07:38:20Z
2021-07-18T05:40:07Z,42.805,6.029,13.3067,4.60036,2470.287,2021-7-18T07:41:24Z
2021-07-18T05:43:11Z,42.805,6.029,13.3075,4.60038,2470.273,2021-7-18T07:44:27Z
2021-07-18T05:46:14Z,42.805,6.029,13.3077,4.60051,2470.31,2021-7-18T07:47:30Z
2021-07-18T05:49:17Z,42.805,6.029,13.3073,4.60031,2470.273,2021-7-18T07:50:33Z
2021-07-18T05:52:20Z,42.805,6.029,13.3071,4.60053,2470.273,2021-7-18T07:53:36Z
2021-07-18T05:55:23Z,42.805,6.029,13.3065,4.60074,2470.25,2021-7-18T07:56:39Z
2021-07-18T05:58:26Z,42.805,6.029,13.3054,4.60078,2470.287,2021-7-18T07:59:42Z
2021-07-18T06:01:29Z,42.805,6.029,13.3058,4.60085,2470.287,2021-7-18T08:02:46Z
2021-07-18T06:04:32Z,42.805,6.029,13.3034,4.60063,2470.24,2021-7-18T08:05:49Z
2021-07-18T06:07:36Z,42.805,6.029,13.3034,4.60047,2470.25,2021-7-18T08:08:52Z
2021-07-18T06:10:39Z,42.805,6.029,13.3032,4.60067,2470.287,2021-7-18T08:11:55Z
2021-07-18T06:13:42Z,42.805,6.029,13.3042,4.60049,2470.25,2021-7-18T08:14:58Z
2021-07-18T06:16:45Z,42.805,6.029,13.3039,4.60041,2470.24,2021-7-18T08:18:01Z
2021-07-18T06:19:48Z,42.805,6.029,13.3043,4.60030,2470.227,2021-7-18T08:21:04Z
2021-07-18T06:22:51Z,42.805,6.029,13.3033,4.60064,2470.264,2021-7-18T08:24:07Z
2021-07-18T06:25:54Z,42.805,6.029,13.3061,4.60091,2470.264,2021-7-18T08:27:10Z
2021-07-18T06:28:57Z,42.805,6.029,13.3040,4.60068,2470.264,2021-7-18T08:30:14Z
2021-07-18T06:32:01Z,42.805,6.029,13.3037,4.60021,2470.287,2021-7-18T08:33:17Z
2021-07-18T06:35:04Z,42.805,6.029,13.3050,4.60036,2470.227,2021-7-18T08:36:20Z
2021-07-18T06:38:07Z,42.805,6.029,13.3046,4.60059,2470.264,2021-7-18T08:39:23Z
2021-07-18T06:41:10Z,42.805,6.029,13.3061,4.60074,2470.25,2021-7-18T08:42:26Z
2021-07-18T06:44:13Z,42.805,6.029,13.3045,4.60052,2470.227,2021-7-18T08:45:29Z
2021-07-18T06:47:16Z,42.805,6.029,13.3016,4.60043,2470.227,2021-7-18T08:48:32Z
2021-07-18T06:50:19Z,42.805,6.029,13.3004,4.60053,2470.273,2021-7-18T08:51:35Z
2021-07-18T06:53:22Z,42.805,6.029,13.3013,4.60058,2470.227,2021-7-18T08:54:39Z
2021-07-18T06:56:26Z,42.805,6.029,13.3035,4.60046,2470.217,2021-7-18T08:57:42Z
2021-07-18T06:59:29Z,42.805,6.029,13.3024,4.60012,2470.25,2021-7-18T09:00:45Z
2021-07-18T07:02:32Z,42.805,6.029,13.3011,4.60023,2470.24,2021-7-18T09:03:48Z
2021-07-18T07:05:35Z,42.805,6.029,13.3004,4.60041,2470.273,2021-7-18T09:06:51Z
2021-07-18T07:08:38Z,42.805,6.029,13.3031,4.60023,2470.25,2021-7-18T09:09:54Z
2021-07-18T07:11:41Z,42.805,6.029,13.3024,4.60014,2470.25,2021-7-18T09:12:57Z
2021-07-18T07:14:44Z,42.805,6.029,13.3009,4.60044,2470.217,2021-7-18T09:16:00Z
2021-07-18T07:17:47Z,42.805,6.029,13.3024,4.60037,2470.287,2021-7-18T09:19:04Z
2021-07-18T07:20:50Z,42.805,6.029,13.3050,4.60034,2470.264,2021-7-18T09:22:07Z
2021-07-18T07:23:54Z,42.805,6.029,13.3060,4.60036,2470.24,2021-7-18T09:25:10Z
2021-07-18T07:26:57Z,42.805,6.029,13.3051,4.60038,2470.227,2021-7-18T09:28:13Z
2021-07-18T07:30:00Z,42.805,6.029,13.3047,4.60031,2470.24,2021-7-18T09:31:16Z
2021-07-18T07:33:03Z,42.805,6.029,13.3034,4.60033,2470.217,2021-7-18T09:34:19Z
2021-07-18T07:36:06Z,42.805,6.029,13.3034,4.60035,2470.217,2021-7-18T09:37:22Z
2021-07-18T07:39:09Z,42.805,6.029,13.3054,4.60033,2470.24,2021-7-18T09:40:25Z
2021-07-18T07:42:12Z,42.805,6.029,13.3026,4.60029,2470.227,2021-7-18T09:43:29Z
2021-07-18T07:45:15Z,42.805,6.029,13.3034,4.60029,2470.24,2021-7-18T09:46:32Z
2021-07-18T07:48:19Z,42.805,6.029,13.3026,4.60039,2470.217,2021-7-18T09:49:35Z
2021-07-18T07:51:22Z,42.805,6.029,13.3030,4.60024,2470.203,2021-7-18T09:52:38Z
2021-07-18T07:54:25Z,42.805,6.029,13.3035,4.60046,2470.25,2021-7-18T09:55:41Z
2021-07-18T07:57:28Z,42.805,6.029,13.3043,4.60036,2470.217,2021-7-18T09:58:44Z
2021-07-18T08:00:31Z,42.805,6.029,13.3045,4.60033,2470.203,2021-7-18T10:01:47Z
2021-07-18T08:03:34Z,42.805,6.029,13.3036,4.60035,2470.217,2021-7-18T10:04:50Z
2021-07-18T08:06:37Z,42.805,6.029,13.3043,4.60029,2470.227,2021-7-18T10:07:54Z
2021-07-18T08:09:40Z,42.805,6.029,13.3036,4.60032,2470.227,2021-7-18T10:10:57Z
2021-07-18T08:12:44Z,42.805,6.029,13.3039,4.60025,2470.227,2021-7-18T10:14:00Z
2021-07-18T08:15:47Z,42.805,6.029,13.3032,4.60032,2470.203,2021-7-18T10:17:03Z
2021-07-18T08:18:50Z,42.805,6.029,13.3032,4.60031,2470.24,2021-7-18T10:20:06Z
2021-07-18T08:21:53Z,42.805,6.029,13.3041,4.60038,2470.194,2021-7-18T10:23:09Z
2021-07-18T08:24:56Z,42.805,6.029,13.3040,4.60043,2470.227,2021-7-18T10:26:12Z
2021-07-18T08:27:59Z,42.805,6.029,13.3046,4.60042,2470.203,2021-7-18T10:29:15Z
2021-07-18T08:31:02Z,42.805,6.029,13.3033,4.60051,2470.203,2021-7-18T10:32:19Z
2021-07-18T08:34:06Z,42.805,6.029,13.3045,4.60038,2470.203,2021-7-18T10:35:22Z
2021-07-18T08:37:09Z,42.805,6.029,13.3043,4.60058,2470.217,2021-7-18T10:38:25Z
2021-07-18T08:40:12Z,42.805,6.029,13.3037,4.60049,2470.217,2021-7-18T10:41:28Z
2021-07-18T08:43:15Z,42.805,6.029,13.3046,4.60041,2470.24,2021-7-18T10:44:31Z
2021-07-18T08:46:18Z,42.805,6.029,13.3043,4.60045,2470.203,2021-7-18T10:47:34Z
2021-07-18T08:49:21Z,42.805,6.029,13.3044,4.60041,2470.203,2021-7-18T10:50:37Z
2021-07-18T08:52:24Z,42.805,6.029,13.3048,4.60033,2470.24,2021-7-18T10:53:40Z
2021-07-18T08:55:27Z,42.805,6.029,13.3039,4.60032,2470.217,2021-7-18T10:56:44Z
2021-07-18T08:58:31Z,42.805,6.029,13.3034,4.60032,2470.227,2021-7-18T10:59:47Z
2021-07-18T09:01:34Z,42.805,6.029,13.3051,4.60046,2470.217,2021-7-18T11:02:50Z
2021-07-18T09:04:37Z,42.805,6.029,13.3034,4.60033,2470.24,2021-7-18T11:05:53Z
2021-07-18T09:07:40Z,42.805,6.029,13.3055,4.60046,2470.24,2021-7-18T11:08:56Z
2021-07-18T09:10:43Z,42.805,6.029,13.3032,4.60069,2470.24,2021-7-18T11:11:59Z
2021-07-18T09:13:46Z,42.805,6.029,13.3020,4.60052,2470.227,2021-7-18T11:15:02Z
2021-07-18T09:16:49Z,42.805,6.029,13.2987,4.60064,2470.227,2021-7-18T11:18:05Z
2021-07-18T09:19:52Z,42.805,6.029,13.2989,4.60036,2470.227,2021-7-18T11:21:09Z
2021-07-18T09:22:56Z,42.805,6.029,13.2987,4.60026,2470.25,2021-7-18T11:24:12Z
2021-07-18T09:25:59Z,42.805,6.029,13.2987,4.60017,2470.227,2021-7-18T11:27:15Z
2021-07-18T09:29:02Z,42.805,6.029,13.2985,4.60015,2470.227,2021-7-18T11:30:18Z
2021-07-18T09:32:05Z,42.805,6.029,13.2990,4.60008,2470.203,2021-7-18T11:33:21Z
2021-07-18T09:35:08Z,42.805,6.029,13.2984,4.60004,2470.227,2021-7-18T11:36:24Z
2021-07-18T09:38:11Z,42.805,6.029,13.2989,4.60004,2470.25,2021-7-18T11:39:27Z
2021-07-18T09:41:14Z,42.805,6.029,13.2986,4.60009,2470.25,2021-7-18T11:42:31Z
2021-07-18T09:44:17Z,42.805,6.029,13.2986,4.60009,2470.273,2021-7-18T11:45:34Z
2021-07-18T09:47:21Z,42.805,6.029,13.2985,4.60010,2470.24,2021-7-18T11:48:37Z
2021-07-18T09:50:24Z,42.805,6.029,13.2984,4.60003,2470.227,2021-7-18T11:51:40Z
2021-07-18T09:53:27Z,42.805,6.029,13.2990,4.60004,2470.273,2021-7-18T11:54:43Z
2021-07-18T09:56:30Z,42.805,6.029,13.2987,4.60009,2470.25,2021-7-18T11:57:46Z
2021-07-18T09:59:33Z,42.805,6.029,13.2984,4.60003,2470.264,2021-7-18T12:00:49Z
2021-07-18T10:02:36Z,42.805,6.029,13.2986,4.60009,2470.25,2021-7-18T12:03:52Z
2021-07-18T10:05:39Z,42.805,6.029,13.2990,4.60001,2470.227,2021-7-18T12:06:56Z
2021-07-18T10:08:42Z,42.805,6.029,13.2988,4.60008,2470.264,2021-7-18T12:09:59Z
2021-07-18T10:11:46Z,42.805,6.029,13.2987,4.60008,2470.287,2021-7-18T12:13:02Z
2021-07-18T10:14:49Z,42.805,6.029,13.2990,4.60003,2470.287,2021-7-18T12:16:05Z
2021-07-18T10:17:52Z,42.805,6.029,13.2985,4.60001,2470.273,2021-7-18T12:19:08Z
2021-07-18T10:20:55Z,42.805,6.029,13.2983,4.60001,2470.25,2021-7-18T12:22:11Z
2021-07-18T10:23:58Z,42.805,6.029,13.2988,4.60001,2470.287,2021-7-18T12:25:14Z
2021-07-18T10:27:01Z,42.805,6.029,13.2987,4.60006,2470.264,2021-7-18T12:28:17Z
2021-07-18T10:30:04Z,42.805,6.029,13.2989,4.60002,2470.287,2021-7-18T12:31:21Z
2021-07-18T10:33:07Z,42.805,6.029,13.2988,4.60001,2470.31,2021-7-18T12:34:24Z
2021-07-18T10:36:11Z,42.805,6.029,13.2983,4.60001,2470.297,2021-7-18T12:37:27Z
2021-07-18T10:39:14Z,42.805,6.029,13.2986,4.60006,2470.31,2021-7-18T12:40:30Z
2021-07-18T10:42:17Z,42.805,6.029,13.2990,4.60002,2470.25,2021-7-18T12:43:33Z
2021-07-18T10:45:20Z,42.805,6.029,13.2986,4.59999,2470.297,2021-7-18T12:46:36Z
2021-07-18T10:48:23Z,42.805,6.029,13.2987,4.60004,2470.31,2021-7-18T12:49:39Z
2021-07-18T10:51:26Z,42.805,6.029,13.2989,4.60000,2470.287,2021-7-18T12:52:42Z
2021-07-18T10:54:29Z,42.805,6.029,13.2988,4.60000,2470.287,2021-7-18T12:55:46Z
2021-07-18T10:57:33Z,42.805,6.029,13.2989,4.60000,2470.32,2021-7-18T12:58:49Z
2021-07-18T11:00:36Z,42.805,6.029,13.2984,4.59999,2470.297,2021-7-18T13:01:52Z
2021-07-18T11:03:39Z,42.805,6.029,13.2984,4.60003,2470.297,2021-7-18T13:04:55Z
2021-07-18T11:06:42Z,42.805,6.029,13.2986,4.59999,2470.334,2021-7-18T13:07:58Z
2021-07-18T11:09:45Z,42.805,6.029,13.2984,4.60001,2470.297,2021-7-18T13:11:01Z
2021-07-18T11:12:48Z,42.805,6.029,13.2984,4.59999,2470.32,2021-7-18T13:14:04Z
2021-07-18T11:15:51Z,42.805,6.029,13.2986,4.60000,2470.334,2021-7-18T13:17:08Z
2021-07-18T11:18:54Z,42.805,6.029,13.2986,4.59999,2470.297,2021-7-18T13:20:11Z
2021-07-18T11:21:58Z,42.805,6.029,13.2987,4.59999,2470.297,2021-7-18T13:23:14Z
2021-07-18T11:25:01Z,42.805,6.029,13.2988,4.59997,2470.32,2021-7-18T13:26:17Z
2021-07-18T11:28:04Z,42.805,6.029,13.2986,4.59999,2470.334,2021-7-18T13:29:20Z
2021-07-18T11:31:07Z,42.805,6.029,13.2987,4.59997,2470.334,2021-7-18T13:32:23Z
2021-07-18T11:34:10Z,42.805,6.029,13.2985,4.59999,2470.32,2021-7-18T13:35:26Z
2021-07-18T11:37:13Z,42.805,6.029,13.2986,4.59999,2470.32,2021-7-18T13:38:29Z
2021-07-18T11:40:16Z,42.805,6.029,13.2987,4.59999,2470.31,2021-7-18T13:41:33Z
2021-07-18T11:43:19Z,42.805,6.029,13.2986,4.59999,2470.343,2021-7-18T13:44:36Z
2021-07-18T11:46:23Z,42.805,6.029,13.2986,4.59997,2470.334,2021-7-18T13:47:39Z
2021-07-18T11:49:26Z,42.805,6.029,13.2987,4.59998,2470.32,2021-7-18T13:50:42Z
2021-07-18T11:52:29Z,42.805,6.029,13.2986,4.59998,2470.32,2021-7-18T13:53:45Z
2021-07-18T11:55:32Z,42.805,6.029,13.2990,4.60001,2470.343,2021-7-18T13:56:48Z
2021-07-18T11:58:35Z,42.805,6.029,13.2984,4.59999,2470.343,2021-7-18T13:59:51Z
2021-07-18T12:01:38Z,42.805,6.029,13.2986,4.59999,2470.357,2021-7-18T14:02:54Z
2021-07-18T12:04:41Z,42.805,6.029,13.2986,4.60000,2470.334,2021-7-18T14:05:58Z
2021-07-18T12:07:44Z,42.805,6.029,13.2986,4.60001,2470.32,2021-7-18T14:09:01Z
2021-07-18T12:10:48Z,42.805,6.029,13.2987,4.59998,2470.32,2021-7-18T14:12:04Z
2021-07-18T12:13:51Z,42.805,6.029,13.2987,4.60001,2470.32,2021-7-18T14:15:07Z
2021-07-18T12:16:54Z,42.805,6.029,13.2988,4.60001,2470.357,2021-7-18T14:18:10Z
2021-07-18T12:19:57Z,42.805,6.029,13.2986,4.60001,2470.343,2021-7-18T14:21:13Z
2021-07-18T12:23:00Z,42.805,6.029,13.2987,4.60001,2470.38,2021-7-18T14:24:16Z
2021-07-18T12:26:03Z,42.805,6.029,13.2986,4.60000,2470.343,2021-7-18T14:27:19Z
2021-07-18T12:29:06Z,42.805,6.029,13.2989,4.60006,2470.343,2021-7-18T14:30:23Z
2021-07-18T12:32:09Z,42.805,6.029,13.2985,4.60003,2470.366,2021-7-18T14:33:26Z
2021-07-18T12:35:13Z,42.805,6.029,13.2985,4.60001,2470.334,2021-7-18T14:36:29Z
2021-07-18T12:38:16Z,42.805,6.029,13.2986,4.60003,2470.38,2021-7-18T14:39:32Z
2021-07-18T12:41:19Z,42.805,6.029,13.2987,4.60002,2470.343,2021-7-18T14:42:35Z
2021-07-18T12:44:22Z,42.805,6.029,13.2986,4.60001,2470.334,2021-7-18T14:45:38Z
2021-07-18T12:47:25Z,42.805,6.029,13.2988,4.60001,2470.357,2021-7-18T14:48:41Z
2021-07-18T12:50:28Z,42.805,6.029,13.2987,4.60002,2470.343,2021-7-18T14:51:44Z
2021-07-18T12:53:31Z,42.805,6.029,13.2982,4.60000,2470.357,2021-7-18T14:54:48Z
2021-07-18T12:56:35Z,42.805,6.029,13.2990,4.59999,2470.38,2021-7-18T14:57:51Z
2021-07-18T12:59:38Z,42.805,6.029,13.2983,4.60000,2470.357,2021-7-18T15:00:54Z
2021-07-18T13:02:41Z,42.805,6.029,13.2986,4.59999,2470.357,2021-7-18T15:03:57Z
2021-07-18T13:05:44Z,42.805,6.029,13.2988,4.59997,2470.343,2021-7-18T15:07:00Z
2021-07-18T13:08:47Z,42.805,6.029,13.2986,4.60001,2470.357,2021-7-18T15:10:03Z
2021-07-18T13:11:50Z,42.805,6.029,13.2983,4.59999,2470.366,2021-7-18T15:13:06Z
2021-07-18T13:14:53Z,42.805,6.029,13.2990,4.60000,2470.357,2021-7-18T15:16:09Z
2021-07-18T13:17:56Z,42.805,6.029,13.2987,4.60001,2470.357,2021-7-18T15:19:13Z
2021-07-18T13:21:00Z,42.805,6.029,13.2989,4.60002,2470.343,2021-7-18T15:22:16Z
2021-07-18T13:24:03Z,42.805,6.029,13.2982,4.60001,2470.38,2021-7-18T15:25:19Z
2021-07-18T13:27:06Z,42.805,6.029,13.2987,4.60001,2470.366,2021-7-18T15:28:22Z
2021-07-18T13:30:09Z,42.805,6.029,13.2986,4.60000,2470.343,2021-7-18T15:31:25Z
2021-07-18T13:33:12Z,42.805,6.029,13.2986,4.60000,2470.357,2021-7-18T15:34:28Z
2021-07-18T13:36:15Z,42.805,6.029,13.2988,4.59999,2470.38,2021-7-18T15:37:31Z
2021-07-18T13:39:18Z,42.805,6.029,13.2990,4.60001,2470.366,2021-7-18T15:40:34Z
2021-07-18T13:42:21Z,42.805,6.029,13.2990,4.60014,2470.343,2021-7-18T15:43:38Z
2021-07-18T13:45:25Z,42.805,6.029,13.2986,4.60009,2470.404,2021-7-18T15:46:41Z
2021-07-18T13:48:28Z,42.805,6.029,13.2984,4.60000,2470.38,2021-7-18T15:49:44Z
2021-07-18T13:51:31Z,42.805,6.029,13.2986,4.60000,2470.357,2021-7-18T15:52:47Z
2021-07-18T13:54:34Z,42.805,6.029,13.2990,4.60004,2470.343,2021-7-18T15:55:50Z
2021-07-18T13:57:37Z,42.805,6.029,13.2981,4.59997,2470.357,2021-7-18T15:58:53Z
2021-07-18T14:00:40Z,42.805,6.029,13.2985,4.59996,2470.366,2021-7-18T16:01:56Z
2021-07-18T14:03:43Z,42.805,6.029,13.2987,4.59998,2470.32,2021-7-18T16:04:59Z
2021-07-18T14:06:46Z,42.805,6.029,13.2990,4.60003,2470.366,2021-7-18T16:08:03Z
2021-07-18T14:09:50Z,42.805,6.029,13.2987,4.60005,2470.38,2021-7-18T16:11:06Z
2021-07-18T14:12:53Z,42.805,6.029,13.2984,4.60002,2470.343,2021-7-18T16:14:09Z
2021-07-18T14:15:56Z,42.805,6.029,13.2985,4.59999,2470.343,2021-7-18T16:17:12Z
2021-07-18T14:18:59Z,42.805,6.029,13.2987,4.60006,2470.366,2021-7-18T16:20:15Z
2021-07-18T14:22:02Z,42.805,6.029,13.2986,4.60001,2470.306,2021-7-18T16:23:18Z
2021-07-18T14:25:05Z,42.805,6.029,13.2988,4.59999,2470.357,2021-7-18T16:26:21Z
2021-07-18T14:28:08Z,42.805,6.029,13.2992,4.60002,2470.32,2021-7-18T16:29:24Z
2021-07-18T14:31:11Z,42.805,6.029,13.2989,4.59999,2470.32,2021-7-18T16:32:28Z
2021-07-18T14:34:15Z,42.805,6.029,13.2990,4.59999,2470.366,2021-7-18T16:35:31Z
2021-07-18T14:37:18Z,42.805,6.029,13.2986,4.60001,2470.366,2021-7-18T16:38:34Z
2021-07-18T14:40:21Z,42.805,6.029,13.2987,4.60001,2470.357,2021-7-18T16:41:37Z
2021-07-18T14:43:24Z,42.805,6.029,13.2988,4.60003,2470.39,2021-7-18T16:44:40Z
2021-07-18T14:46:27Z,42.805,6.029,13.2990,4.59998,2470.343,2021-7-18T16:47:43Z
2021-07-18T14:49:30Z,42.805,6.029,13.2990,4.59998,2470.38,2021-7-18T16:50:46Z
2021-07-18T14:52:33Z,42.805,6.029,13.2989,4.59997,2470.366,2021-7-18T16:53:50Z
2021-07-18T14:55:36Z,42.805,6.029,13.2993,4.59998,2470.343,2021-7-18T16:56:53Z
2021-07-18T14:58:40Z,42.805,6.029,13.2986,4.59998,2470.343,2021-7-18T16:59:56Z
2021-07-18T15:01:43Z,42.805,6.029,13.2992,4.59996,2470.343,2021-7-18T17:02:59Z
2021-07-18T15:04:46Z,42.805,6.029,13.2990,4.60011,2470.334,2021-7-18T17:06:02Z
2021-07-18T15:07:49Z,42.805,6.029,13.2991,4.59998,2470.32,2021-7-18T17:09:05Z
2021-07-18T15:10:52Z,42.805,6.029,13.2990,4.60003,2470.343,2021-7-18T17:12:08Z
2021-07-18T15:13:55Z,42.805,6.029,13.2983,4.59996,2470.366,2021-7-18T17:15:11Z